User: anonymous   Login
Location: DaVinci Observatory
(43.1080°N, 78.6453°W)
Time: 02:46:28
(UTC-05:00)
Language:

N. Korean satellite - Orbit

View from above orbital plane
View from above orbital plane
View from above satellite
View from above satellite

Ground track
Ground track

The orbit data is extracted from the following two-line orbital elements,

1 39026U 12072A   18017.51925769 +.00001177 +00000-0 +47054-4 0  9993
2 39026 097.2147 033.0263 0040964 135.8895 224.5623 15.26285533282614
Epoch (UTC): 17 January 2018 12:27:43
Eccentricity: 0.0040964
inclination: 97.2147°
perigee height: 459 km
apogee height: 515 km
right ascension of ascending node: 33.0263°
argument of perigee: 135.8895°
revolutions per day: 15.26285533
mean anomaly at epoch: 224.5623°
orbit number at epoch: 28261

The dashed part of the orbit path shows where the satellite is in the earth's shadow,  

DLR